VOZ63 YSSY-YMML

Flight info

Callsign VOZ63
Flight time 1h 6m
Altitude 36000
Route WOL H65 LEECE Q29 ML
Aircraft B738/M-SDE2E3FGHIRWXY/LB1

Departure

Time 2026-05-01 10:07
Airport Sydney Kingsford Smith International Airport (YSSY)

Arrival

Time 2026-05-01 11:13
Airport Melbourne Airport (YMML)
Time Latitude Longitude Altitude Speed Heading
2026-05-01 09:21 -33.93597 151.17990 29 ft 0 kts 280°
2026-05-01 09:52 -33.93598 151.17998 29 ft 2 kts 279°
2026-05-01 09:52 -33.93600 151.18012 29 ft 2 kts 279°
2026-05-01 09:52 -33.93602 151.18026 29 ft 2 kts 278°
2026-05-01 09:52 -33.93603 151.18040 29 ft 2 kts 253°
2026-05-01 09:53 -33.93598 151.18052 28 ft 2 kts 215°
2026-05-01 09:53 -33.93587 151.18055 28 ft 2 kts 168°
2026-05-01 09:53 -33.93584 151.18055 28 ft 0 kts 171°
2026-05-01 09:55 -33.93616 151.18055 27 ft 9 kts 184°
2026-05-01 09:55 -33.93685 151.18054 29 ft 10 kts 173°
2026-05-01 09:55 -33.93750 151.18063 29 ft 9 kts 189°
2026-05-01 09:56 -33.93785 151.18009 29 ft 8 kts 247°
2026-05-01 09:56 -33.93802 151.17943 29 ft 8 kts 254°
2026-05-01 09:56 -33.93816 151.17873 29 ft 9 kts 258°
2026-05-01 09:56 -33.93835 151.17800 29 ft 9 kts 240°
2026-05-01 09:57 -33.93892 151.17778 29 ft 9 kts 174°
2026-05-01 09:57 -33.93956 151.17793 28 ft 10 kts 169°
2026-05-01 09:57 -33.94025 151.17810 28 ft 10 kts 168°
2026-05-01 09:57 -33.94095 151.17827 28 ft 10 kts 168°
2026-05-01 09:58 -33.94162 151.17844 29 ft 9 kts 168°
2026-05-01 09:58 -33.94225 151.17862 29 ft 9 kts 166°
2026-05-01 09:58 -33.94309 151.17886 28 ft 16 kts 167°
2026-05-01 09:58 -33.94430 151.17912 29 ft 18 kts 182°
2026-05-01 09:59 -33.94547 151.17889 29 ft 17 kts 170°
2026-05-01 09:59 -33.94656 151.17918 29 ft 16 kts 167°
2026-05-01 09:59 -33.94753 151.17942 29 ft 14 kts 169°
2026-05-01 09:59 -33.94846 151.17965 29 ft 13 kts 168°
2026-05-01 10:00 -33.94933 151.17989 29 ft 12 kts 166°
2026-05-01 10:00 -33.95015 151.18010 30 ft 12 kts 169°
2026-05-01 10:00 -33.95086 151.18046 29 ft 12 kts 129°
2026-05-01 10:00 -33.95093 151.18140 30 ft 11 kts 78°
2026-05-01 10:01 -33.95077 151.18229 30 ft 10 kts 77°
2026-05-01 10:01 -33.95063 151.18311 28 ft 10 kts 77°
2026-05-01 10:01 -33.95049 151.18386 30 ft 9 kts 77°
2026-05-01 10:01 -33.95043 151.18415 30 ft 0 kts 78°
2026-05-01 10:02 -33.95042 151.18446 30 ft 13 kts 92°
2026-05-01 10:02 -33.95148 151.18580 29 ft 30 kts 141°
2026-05-01 10:02 -33.95329 151.18722 29 ft 32 kts 164°
2026-05-01 10:03 -33.95538 151.18778 29 ft 30 kts 168°
2026-05-01 10:03 -33.95735 151.18828 29 ft 28 kts 168°
2026-05-01 10:03 -33.95922 151.18877 29 ft 27 kts 168°
2026-05-01 10:03 -33.96098 151.18922 29 ft 25 kts 168°
2026-05-01 10:04 -33.96262 151.18964 29 ft 23 kts 168°
2026-05-01 10:04 -33.96420 151.19005 29 ft 24 kts 168°
2026-05-01 10:04 -33.96582 151.19048 29 ft 24 kts 168°
2026-05-01 10:04 -33.96746 151.19068 29 ft 24 kts 188°
2026-05-01 10:05 -33.96910 151.19088 29 ft 24 kts 168°
2026-05-01 10:05 -33.97058 151.19126 29 ft 18 kts 168°
2026-05-01 10:05 -33.97091 151.19138 29 ft 0 kts 154°
2026-05-01 10:05 -33.97093 151.19139 29 ft 0 kts 154°
2026-05-01 10:06 -33.97114 151.19167 29 ft 14 kts 120°
2026-05-01 10:06 -33.97108 151.19296 27 ft 18 kts 78°
2026-05-01 10:06 -33.96996 151.19354 27 ft 29 kts 348°
2026-05-01 10:06 -33.96676 151.19273 25 ft 71 kts 346°
2026-05-01 10:07 -33.95998 151.19098 27 ft 129 kts 347°
2026-05-01 10:07 -33.94978 151.18835 267 ft 161 kts 349°
2026-05-01 10:07 -33.93855 151.18497 985 ft 168 kts 353°
2026-05-01 10:07 -33.92729 151.18662 1740 ft 169 kts 34°
2026-05-01 10:08 -33.92181 151.21138 3252 ft 177 kts 112°
2026-05-01 10:08 -33.92846 151.22444 3908 ft 187 kts 120°
2026-05-01 10:08 -33.93565 151.23758 4615 ft 189 kts 113°
2026-05-01 10:09 -33.93837 151.25271 5292 ft 188 kts 86°
2026-05-01 10:09 -33.93776 151.26974 5409 ft 223 kts 85°
2026-05-01 10:09 -33.93710 151.29027 5394 ft 268 kts 86°
2026-05-01 10:09 -33.93646 151.31410 5435 ft 293 kts 86°
2026-05-01 10:10 -33.93588 151.33825 6541 ft 284 kts 86°
2026-05-01 10:10 -33.93527 151.36173 7776 ft 277 kts 86°
2026-05-01 10:10 -33.93388 151.40809 9842 ft 282 kts 85°
2026-05-01 10:11 -33.93311 151.43219 10554 ft 297 kts 85°
2026-05-01 10:11 -33.93422 151.45775 11055 ft 317 kts 101°
2026-05-01 10:11 -33.94421 151.48224 11553 ft 339 kts 128°
2026-05-01 10:11 -33.96347 151.49978 12034 ft 361 kts 154°
2026-05-01 10:12 -33.98846 151.50579 12615 ft 375 kts 181°
2026-05-01 10:12 -34.01394 151.49827 13375 ft 383 kts 206°
2026-05-01 10:12 -34.04915 151.45080 14911 ft 390 kts 242°
2026-05-01 10:13 -34.06223 151.42236 15591 ft 395 kts 241°
2026-05-01 10:13 -34.07755 151.39472 16322 ft 399 kts 229°
2026-05-01 10:13 -34.09668 151.37016 17013 ft 403 kts 226°
2026-05-01 10:14 -34.13618 151.32127 18434 ft 411 kts 225°
2026-05-01 10:14 -34.15625 151.29644 19063 ft 414 kts 226°
2026-05-01 10:14 -34.17636 151.27143 19655 ft 417 kts 226°
2026-05-01 10:14 -34.19663 151.24610 20244 ft 421 kts 226°
2026-05-01 10:15 -34.21704 151.22052 20865 ft 423 kts 227°
2026-05-01 10:15 -34.23755 151.19478 21477 ft 426 kts 227°
2026-05-01 10:15 -34.25792 151.16924 22055 ft 429 kts 227°
2026-05-01 10:15 -34.27870 151.14318 22634 ft 431 kts 227°
2026-05-01 10:16 -34.29962 151.11695 23214 ft 434 kts 227°
2026-05-01 10:16 -34.32066 151.09052 23748 ft 437 kts 227°
2026-05-01 10:16 -34.36306 151.03719 24681 ft 442 kts 227°
2026-05-01 10:17 -34.38443 151.01029 25138 ft 444 kts 227°
2026-05-01 10:17 -34.42751 150.95598 25978 ft 449 kts 227°
2026-05-01 10:17 -34.44920 150.92861 26372 ft 452 kts 227°
2026-05-01 10:18 -34.49302 150.87324 27126 ft 457 kts 227°
2026-05-01 10:18 -34.51505 150.84536 27488 ft 460 kts 227°
2026-05-01 10:18 -34.53727 150.81722 27820 ft 462 kts 227°
2026-05-01 10:19 -34.55899 150.78843 28136 ft 464 kts 233°
2026-05-01 10:19 -34.57824 150.75749 28466 ft 465 kts 235°
2026-05-01 10:19 -34.59755 150.72584 28805 ft 468 kts 236°
2026-05-01 10:20 -34.63600 150.66168 29448 ft 472 kts 236°
2026-05-01 10:20 -34.65535 150.62936 29802 ft 473 kts 236°
2026-05-01 10:20 -34.67476 150.59712 30289 ft 472 kts 236°
2026-05-01 10:20 -34.69411 150.56505 30686 ft 471 kts 236°
2026-05-01 10:21 -34.71341 150.53298 31077 ft 469 kts 236°
2026-05-01 10:21 -34.75176 150.46896 31873 ft 466 kts 236°
2026-05-01 10:21 -34.77079 150.43715 32305 ft 464 kts 236°
2026-05-01 10:22 -34.80854 150.37404 33203 ft 458 kts 236°
2026-05-01 10:22 -34.84589 150.31147 33983 ft 455 kts 236°
2026-05-01 10:23 -34.86418 150.28077 34369 ft 453 kts 236°
2026-05-01 10:23 -34.90111 150.21873 35036 ft 450 kts 236°
2026-05-01 10:23 -34.91948 150.18783 35355 ft 449 kts 236°
2026-05-01 10:24 -34.95595 150.12641 36080 ft 444 kts 236°
2026-05-01 10:24 -34.99221 150.06523 36400 ft 448 kts 236°
2026-05-01 10:25 -35.06485 149.94237 36404 ft 444 kts 236°
2026-05-01 10:26 -35.10089 149.88125 36407 ft 442 kts 236°
2026-05-01 10:27 -35.17246 149.75952 36404 ft 440 kts 236°
2026-05-01 10:28 -35.22591 149.66835 36408 ft 442 kts 236°
2026-05-01 10:28 -35.27955 149.57663 36403 ft 441 kts 236°
2026-05-01 10:29 -35.33302 149.48494 36400 ft 441 kts 236°
2026-05-01 10:30 -35.40390 149.36304 36392 ft 440 kts 236°
2026-05-01 10:31 -35.47508 149.24018 36396 ft 442 kts 237°
2026-05-01 10:32 -35.52845 149.14780 36401 ft 442 kts 237°
2026-05-01 10:33 -35.59929 149.02477 36408 ft 443 kts 237°
2026-05-01 10:34 -35.65252 148.93206 36413 ft 441 kts 237°
2026-05-01 10:34 -35.68788 148.87033 36409 ft 441 kts 237°
2026-05-01 10:35 -35.74093 148.77749 36415 ft 443 kts 237°
2026-05-01 10:35 -35.77635 148.71538 36417 ft 442 kts 237°
2026-05-01 10:36 -35.82894 148.62297 36417 ft 440 kts 237°
2026-05-01 10:37 -35.85822 148.57137 36419 ft 442 kts 237°
2026-05-01 10:37 -35.91107 148.47799 36414 ft 443 kts 237°
2026-05-01 10:38 -35.94614 148.41563 36406 ft 441 kts 237°
2026-05-01 10:38 -35.98106 148.35351 36393 ft 439 kts 237°
2026-05-01 10:39 -36.01595 148.29134 36400 ft 442 kts 237°
2026-05-01 10:39 -36.05081 148.22910 36387 ft 443 kts 237°
2026-05-01 10:40 -36.08579 148.16654 36393 ft 441 kts 237°
2026-05-01 10:40 -36.12047 148.10438 36370 ft 438 kts 237°
2026-05-01 10:41 -36.15519 148.04231 36388 ft 439 kts 237°
2026-05-01 10:42 -36.20736 147.94894 36354 ft 439 kts 238°
2026-05-01 10:42 -36.24182 147.88702 36360 ft 438 kts 238°
2026-05-01 10:43 -36.27619 147.82523 36362 ft 434 kts 238°
2026-05-01 10:43 -36.31056 147.76324 36357 ft 439 kts 238°
2026-05-01 10:44 -36.34518 147.70076 36353 ft 439 kts 238°
2026-05-01 10:44 -36.37963 147.63832 36360 ft 438 kts 238°
2026-05-01 10:45 -36.41376 147.57629 36355 ft 433 kts 238°
2026-05-01 10:45 -36.44785 147.51425 36358 ft 437 kts 238°
2026-05-01 10:46 -36.48190 147.45220 36352 ft 437 kts 238°
2026-05-01 10:46 -36.51610 147.38976 36366 ft 436 kts 238°
2026-05-01 10:47 -36.55021 147.32736 36358 ft 435 kts 238°
2026-05-01 10:47 -36.58416 147.26513 36352 ft 434 kts 238°
2026-05-01 10:48 -36.61789 147.20319 36357 ft 435 kts 238°
2026-05-01 10:48 -36.65182 147.14078 36358 ft 435 kts 238°
2026-05-01 10:49 -36.68573 147.07826 36353 ft 435 kts 239°
2026-05-01 10:49 -36.71959 147.01576 36353 ft 435 kts 239°
2026-05-01 10:50 -36.75339 146.95326 36359 ft 435 kts 239°
2026-05-01 10:50 -36.78717 146.89065 36356 ft 435 kts 239°
2026-05-01 10:51 -36.82093 146.82796 36357 ft 436 kts 239°
2026-05-01 10:51 -36.85466 146.76521 36367 ft 437 kts 239°
2026-05-01 10:52 -36.88853 146.70211 36356 ft 437 kts 239°
2026-05-01 10:52 -36.92230 146.63905 36355 ft 436 kts 239°
2026-05-01 10:53 -36.95606 146.57589 36357 ft 437 kts 239°
2026-05-01 10:53 -36.98983 146.51262 36338 ft 436 kts 239°
2026-05-01 10:54 -37.02346 146.44944 35414 ft 443 kts 239°
2026-05-01 10:54 -37.04048 146.41743 34590 ft 441 kts 239°
2026-05-01 10:54 -37.05745 146.38551 33728 ft 438 kts 239°
2026-05-01 10:54 -37.07429 146.35380 32849 ft 435 kts 239°
2026-05-01 10:55 -37.09099 146.32232 31932 ft 433 kts 238°
2026-05-01 10:55 -37.10781 146.29055 30972 ft 441 kts 238°
2026-05-01 10:55 -37.12483 146.25835 30290 ft 444 kts 238°
2026-05-01 10:55 -37.14192 146.22605 29603 ft 444 kts 238°
2026-05-01 10:56 -37.15876 146.19422 28943 ft 443 kts 238°
2026-05-01 10:56 -37.17574 146.16207 28291 ft 443 kts 238°
2026-05-01 10:56 -37.19271 146.12988 27636 ft 442 kts 238°
2026-05-01 10:56 -37.20970 146.09762 26956 ft 443 kts 239°
2026-05-01 10:57 -37.22669 146.06533 26278 ft 443 kts 239°
2026-05-01 10:57 -37.24366 146.03305 25606 ft 442 kts 239°
2026-05-01 10:57 -37.26056 146.00089 24923 ft 441 kts 239°
2026-05-01 10:57 -37.27736 145.96887 24227 ft 439 kts 239°
2026-05-01 10:58 -37.29418 145.93676 23465 ft 440 kts 239°
2026-05-01 10:58 -37.31086 145.90493 22728 ft 429 kts 239°
2026-05-01 10:58 -37.32709 145.87408 22025 ft 416 kts 239°
2026-05-01 10:58 -37.34288 145.84408 21363 ft 409 kts 239°
2026-05-01 10:59 -37.35843 145.81442 20689 ft 412 kts 239°
2026-05-01 10:59 -37.37419 145.78428 20010 ft 414 kts 239°
2026-05-01 10:59 -37.38997 145.75411 19311 ft 409 kts 239°
2026-05-01 10:59 -37.40551 145.72444 18622 ft 403 kts 239°
2026-05-01 11:00 -37.42084 145.69515 17869 ft 397 kts 239°
2026-05-01 11:00 -37.43585 145.66639 17166 ft 390 kts 239°
2026-05-01 11:00 -37.45059 145.63816 16484 ft 383 kts 239°
2026-05-01 11:00 -37.46557 145.61077 15817 ft 377 kts 237°
2026-05-01 11:01 -37.48110 145.58443 15165 ft 373 kts 235°
2026-05-01 11:01 -37.49681 145.55850 14493 ft 372 kts 235°
2026-05-01 11:01 -37.51233 145.53246 13792 ft 371 kts 236°
2026-05-01 11:01 -37.52753 145.50628 13085 ft 369 kts 236°
2026-05-01 11:02 -37.54249 145.48017 12397 ft 366 kts 236°
2026-05-01 11:02 -37.55739 145.45423 11713 ft 364 kts 236°
2026-05-01 11:02 -37.57205 145.42889 11055 ft 361 kts 236°
2026-05-01 11:02 -37.58667 145.40377 10773 ft 346 kts 236°
2026-05-01 11:03 -37.60055 145.37991 10655 ft 327 kts 236°
2026-05-01 11:03 -37.61365 145.35731 10500 ft 311 kts 236°
2026-05-01 11:03 -37.62604 145.33583 10381 ft 296 kts 237°
2026-05-01 11:03 -37.63803 145.31500 10246 ft 291 kts 237°
2026-05-01 11:04 -37.65002 145.29414 9869 ft 296 kts 237°
2026-05-01 11:04 -37.66213 145.27308 9346 ft 296 kts 237°
2026-05-01 11:04 -37.67423 145.25210 8812 ft 295 kts 237°
2026-05-01 11:04 -37.68619 145.23138 8380 ft 289 kts 237°
2026-05-01 11:05 -37.69791 145.21105 8008 ft 283 kts 237°
2026-05-01 11:05 -37.70938 145.19114 7651 ft 277 kts 237°
2026-05-01 11:05 -37.72064 145.17154 7310 ft 275 kts 238°
2026-05-01 11:05 -37.73180 145.15209 6973 ft 271 kts 238°
2026-05-01 11:06 -37.74262 145.13324 6643 ft 267 kts 238°
2026-05-01 11:06 -37.75355 145.11418 6306 ft 268 kts 238°
2026-05-01 11:06 -37.76446 145.09514 5977 ft 266 kts 238°
2026-05-01 11:07 -37.78603 145.05751 5327 ft 264 kts 238°
2026-05-01 11:07 -37.79678 145.03871 5002 ft 265 kts 238°
2026-05-01 11:07 -37.80755 145.01973 4682 ft 264 kts 242°
2026-05-01 11:07 -37.81512 144.99894 4377 ft 257 kts 259°
2026-05-01 11:08 -37.81932 144.97760 4063 ft 249 kts 262°
2026-05-01 11:08 -37.82307 144.95652 3746 ft 236 kts 263°
2026-05-01 11:08 -37.82877 144.91801 3262 ft 210 kts 268°
2026-05-01 11:09 -37.83075 144.90054 3161 ft 192 kts 269°
2026-05-01 11:09 -37.83137 144.88446 3074 ft 175 kts 290°
2026-05-01 11:09 -37.82620 144.87165 3016 ft 159 kts 322°
2026-05-01 11:10 -37.80662 144.86329 2442 ft 141 kts 356°
2026-05-01 11:10 -37.79700 144.86158 2132 ft 139 kts 358°
2026-05-01 11:10 -37.78758 144.85991 1885 ft 132 kts 357°
2026-05-01 11:10 -37.77855 144.85827 1840 ft 135 kts 357°
2026-05-01 11:11 -37.76938 144.85659 1782 ft 130 kts 356°
2026-05-01 11:11 -37.76026 144.85491 1725 ft 133 kts 356°
2026-05-01 11:11 -37.75147 144.85325 1672 ft 127 kts 356°
2026-05-01 11:11 -37.74245 144.85159 1488 ft 131 kts 356°
2026-05-01 11:12 -37.73326 144.84991 1362 ft 142 kts 354°
2026-05-01 11:12 -37.72337 144.84801 1220 ft 145 kts 354°
2026-05-01 11:12 -37.71346 144.84601 1016 ft 145 kts 353°
2026-05-01 11:12 -37.70350 144.84426 740 ft 145 kts 354°
2026-05-01 11:13 -37.69394 144.84230 541 ft 138 kts 353°
2026-05-01 11:13 -37.68422 144.84066 383 ft 142 kts 353°
2026-05-01 11:13 -37.67547 144.83907 367 ft 98 kts 353°
2026-05-01 11:13 -37.67111 144.83834 382 ft 46 kts 360°
2026-05-01 11:14 -37.66852 144.83904 390 ft 22 kts 22°
2026-05-01 11:14 -37.66828 144.83918 391 ft 0 kts 25°
2026-05-01 11:15 -37.66822 144.83921 391 ft 0 kts 25°
2026-05-01 11:15 -37.66750 144.83974 393 ft 19 kts 46°
2026-05-01 11:15 -37.66721 144.84090 391 ft 13 kts 97°
2026-05-01 11:15 -37.66774 144.84182 392 ft 15 kts 150°
2026-05-01 11:16 -37.66884 144.84210 388 ft 18 kts 172°
2026-05-01 11:16 -37.67015 144.84234 385 ft 20 kts 172°
2026-05-01 11:16 -37.67157 144.84261 382 ft 21 kts 163°
2026-05-01 11:16 -37.67200 144.84405 383 ft 18 kts 84°
2026-05-01 11:17 -37.67208 144.84525 384 ft 7 kts 85°
2026-05-01 11:17 -37.67204 144.84581 385 ft 6 kts 85°
2026-05-01 11:17 -37.67197 144.84629 386 ft 5 kts 65°
2026-05-01 11:17 -37.67169 144.84642 387 ft 4 kts 356°
2026-05-01 11:18 -37.67142 144.84637 388 ft 4 kts 353°
2026-05-01 11:18 -37.67137 144.84637 388 ft 0 kts 353°
2026-05-01 11:23 -37.67124 144.84634 388 ft 2 kts 352°
2026-05-01 11:23 -37.67122 144.84634 388 ft 0 kts 352°